Regional Weather Roundup
Issued by NWS Jackson, KY

Home | Current Version | Previous Version | Text Only | Print | Product List | Glossary On
Versions: 1 2 3 4 5 6 7 8 9 10 11 12 13 14 15 16 17 18 19 20 21 22 23 24 25 26 27 28 29 30 31 32 33 34 35 36 37 38 39 40 41 42 43 44 45 46 47 48 49 50
000
ASUS43 KJKL 060010
RWRJKL

EAST KENTUCKY HOURLY WEATHER ROUNDUP
NATIONAL WEATHER SERVICE JACKSON KY
700 PM EST THU MAR 05 2015

NOTE: "FAIR" INDICATES FEW OR NO CLOUDS BELOW 12,000 FEET WITH
NO SIGNIFICANT WEATHER AND/OR OBSTRUCTIONS TO VISIBILITY.

* THESE REPORTS ARE NOT UNDER NWS QUALITY CONTROL AND MAY NOT
  REPORT WEATHER SUCH AS PRECIPITATION AND FOG.

KYZ079-080-083-085-087-088-110-112-115-119-120-060100
...EASTERN KENTUCKY...

CITY           SKY/WX    TMP DP  RH WIND       PRES   REMARKS
JACKSON        PTCLDY    17   9  70 VRB3      30.43R
6HR MIN TEMP:  17; 6HR MAX TEMP:  21; 6HR PCP:  0.03;

LONDON         CLOUDY    19  10  68 N3        30.45R
6HR MIN TEMP:  19; 6HR MAX TEMP:  22; 6HR PCP: TRACE;

SOMERSET*      MOCLDY    19  12  73 NE5       30.48R WCI  13
MONTICELLO*    MIX PCPN  19  12  74 NE5       30.50R WCI  12
6HR MIN TEMP:  19; 6HR MAX TEMP:  23; 6HR PCP: TRACE;

MIDDLESBORO*   FLURRIES  23  18  81 N6        30.43R WCI  15
6HR MIN TEMP:  23; 6HR MAX TEMP:  28;

HAZARD APT*    MOCLDY    18  14  86 CALM      30.44R
BLACK MTN*       N/A     10  10 100 N5          N/A  WCI   2
PIKEVILLE APT* FLURRIES  18  14  86 N3        30.41R
BIG SANDY*     LGT SNOW  19  16  88 CALM      30.43R
6HR MIN TEMP:  19; 6HR MAX TEMP:  22;

MOREHEAD APT*  CLEAR     19  10  68 CALM      30.48R
$$

KYZ035-036-041-042-044-050-067-078-099-060100
...CENTRAL KENTUCKY...

CITY           SKY/WX    TMP DP  RH WIND       PRES   REMARKS
MT STERLING*   CLEAR     18  12  79 CALM      30.47R
FLEMING/MASON* CLEAR     18   9  68 N6        30.48R WCI   9
DANVILLE*      CLEAR     12   9  85 CALM      30.47R
RICHMOND*      CLEAR     19  10  68 CALM      30.46R
LEXINGTON      FLURRIES  18  10  71 NE3       30.46R
6HR MIN TEMP:  17; 6HR MAX TEMP:  23; 6HR PCP: TRACE;

FRANKFORT      CLOUDY    23  12  62 N8        30.47R WCI  14
6HR MIN TEMP:  20; 6HR MAX TEMP:  26;

$$

KYZ091>093-OHZ055-061-077-WVZ005-015-034-035-042-060100
...SOUTHERN OHIO/WEST VIRGINIA...

CITY           SKY/WX    TMP DP  RH WIND       PRES   REMARKS
COVINGTON      PTCLDY    19   5  54 N8        30.47R WCI   9
COLUMBUS       MOCLDY    17   4  56 N10       30.48R WCI   5
DAYTON         PTCLDY    16   5  62 N6        30.48R WCI   7
WILMINGTON     CLEAR     16   1  51 N9        30.46R WCI   4
HUNTINGTON     FLURRIES  19  14  81 NW5       30.46R WCI  12
CHARLESTON     FLURRIES  20  15  81 CALM      30.43R
PINEVILLE*     LGT SNOW  23  21  92 MISG      30.39R
BECKLEY        LGT SNOW  17  12  80 NW10      30.28R WCI   5
BLUEFIELD      CLOUDY    20  14  77 NW9       30.23R WCI   9
$$

VAZ002-007-008-TNZ017-027-036-066-071-060100
...SOUTHWEST VIRGINIA/EAST TENNESSEE...

CITY           SKY/WX    TMP DP  RH WIND       PRES   REMARKS
WISE*          LGT SNOW  19  19 100 N6        30.30R WCI  11
JONESVILLE*    CLOUDY    23  19  86 N6        30.40R WCI  16
ABINGDON*      CLOUDY    25  20  83 N7        30.29R WCI  17
BRISTOL        CLOUDY    25  19  78 NW9       30.34R WCI  15
OAK RIDGE      CLOUDY    26  20  77 VRB7      30.42R WCI  18
CROSSVILLE     CLOUDY    19  15  84 N14G20    30.36R WCI   6
NASHVILLE      PTCLDY    23  13  65 N9        30.50R WCI  13
$$

...KEY TO REMARKS...
VSB - VISIBILITY IN MILES
WCI - WIND CHILL INDEX
HX  - HEAT INDEX

$$



USA.gov is the U.S. government's official web portal to all federal, state and local government web resources and services.